Regional Weather Roundup
Issued by NWS

Home | Current Version | Previous Version | Text Only | Print | Product List | Glossary Off
Versions: 1 2 3 4 5 6 7 8 9 10 11 12 13 14 15 16 17 18 19 20 21 22 23 24 25 26 27 28 29 30 31 32 33 34 35 36 37 38 39 40 41 42 43 44 45 46 47 48 49 50

000
ASUS43 KTOP 290408
RWRKS

WEATHER ROUNDUP FOR KANSAS
NATIONAL WEATHER SERVICE GOODLAND KS
1100 PM CDT SAT MAR 28 2015

NOTE:  "FAIR" INDICATES FEW OR NO CLOUDS BELOW 12,000 FEET WITH NO
SIGNIFICANT WEATHER AND/OR OBSTRUCTIONS TO VISIBILITY.

KSZ001>006-013>018-027>032-041>047-290500-
NORTHWEST KANSAS

CITY           SKY/WX    TMP DP  RH WIND       PRES   REMARKS
GOODLAND       CLEAR     65  26  23 S17       29.86F
HAYS           CLEAR     59  39  47 S20       29.89F
HILL CITY      CLEAR     60  40  47 S15G24    29.85F
RUSSELL        CLEAR     56  40  55 SE17      29.88F
$$

KSZ061>065-074>080-084>089-290500-
SOUTHWEST KANSAS

CITY           SKY/WX    TMP DP  RH WIND       PRES   REMARKS
DODGE CITY     CLEAR     61  42  49 SE21G28   29.94F
ELKHART          N/A     61  30  31 S10         N/A
GARDEN CITY    CLEAR     60  41  49 SE21G28   29.91S
GREAT BEND     CLEAR     57  39  51 S14       29.93F
LIBERAL        CLEAR     61  36  39 SE13      29.94F
PRATT          CLEAR     55  41  58 S13       29.97F
$$

KSZ066>073-081>083-090>101-290500-
SOUTHEAST KANSAS

CITY           SKY/WX    TMP DP  RH WIND       PRES   REMARKS
CHANUTE        CLEAR     45  37  73 SE15      30.08F
COFFEYVILLE    CLEAR     48  40  73 E6        30.08R
HUTCHINSON     CLEAR     57  41  55 SE16      29.97F
MEDICINE LODGE   N/A     60  43  53 SE13      29.97F
NEWTON         CLEAR     52  37  58 SE12      30.02F
PARSONS        CLEAR     48  39  71 VRB3      30.09S
WICHITA INTL   CLEAR     57  40  52 SE16      29.99F
WICHITA JABRA  CLEAR     55  40  56 SE14      30.00F
WICHITA MCCONL CLEAR     56  41  56 SE14      30.00F
WINFIELD       CLEAR     56  41  57 SE12      30.03F
$$

KSZ007>012-019>026-033>040-048>060-102>105-290500-
NORTHEAST KANSAS

CITY           SKY/WX    TMP DP  RH WIND       PRES   REMARKS
CONCORDIA      CLEAR     50  37  61 SE21G26   29.92F
EMPORIA        CLEAR     46  37  71 SE17      30.04F
LAWRENCE       CLEAR     42  32  67 SE13      30.10F
MANHATTAN      CLEAR     48  36  63 SE9       30.01F
MARYSVILLE     CLEAR     45  34  65 SE16G23   29.98F
OLATHE IND     CLEAR     41  32  70 SE15      30.10F
OLATHE EXE     CLEAR     41  31  67 SE14      30.10F
SALINA         CLEAR     55  40  56 SE17      29.95F
TOPEKA BILLARD CLEAR     45  32  60 SE15      30.08F
TOPEKA FORBES  CLEAR     45  33  63 SE12      30.06F
$$


USA.gov is the U.S. government's official web portal to all federal, state and local government web resources and services.